Flag for U.S.A. Weather past 2 weeks in Santa Clarita, California, U.S.A.

Now
66 °F

Clear.


Feels Like: 66 °F
Forecast: 63 / 90 °F
Wind: 5 mph from South

Location: Van Nuys Airport

Current Time: Aug 31, 2015 at 6:20:11 AM

Latest Report: Aug 31, 2015 at 5:51 AM


Visibility: 10 mi

Pressure: 29.85 "Hg

Humidity: 87%

Dew point: 62 °F

Location of Santa ClaritaLocation

Historic Weather in Santa Clarita — Graph

°F

Santa Clarita temperature yesterday

Maximum temperature yesterday: 91 °F (at 12:51 PM)
Minimum temperature yesterday: 72 °F (at 5:51 AM)
Average temperature yesterday: 81 °F

Past Weeks' High & Low Weather Summary

 TemperatureHumidityPressure
High105 °F (Aug 16, 2:51 PM)91% (Aug 22, 2:58 AM)29.97 "Hg (Aug 22, 2:58 AM)
Low65 °F (Aug 19, 6:00 AM)7% (Aug 16, 4:51 PM)29.76 "Hg (Aug 16, 5:51 PM)
Average79 °F55%29.87 "Hg
* Reported Aug 16 4:51 AM — Aug 31 4:51 AM, Santa Clarita, Weather by CustomWeather, © 2015

Note: Actual official high and low records may vary slightly from our data, if they occured in-between our weather recording intervals... More about our weather records

Advertising

Santa Clarita weather history for previous 24 hours

 ConditionsComfort  
Time TempWeatherWind HumidityBarometerVisibility
4:51 AM
Mon, Aug 31
68 °FClear.3 mph82%29.83 "Hg10 mi
3:51 AM70 °FClear.5 mph73%29.82 "Hg10 mi
2:51 AM70 °FClear.5 mph71%29.82 "Hg10 mi
1:51 AM71 °FClear.3 mph68%29.82 "Hg10 mi
12:51 AM70 °FClear.3 mph68%29.83 "Hg10 mi
11:51 PM
Sun, Aug 30
73 °FClear.3 mph64%29.83 "Hg10 mi
10:51 PM74 °FClear.7 mph60%29.82 "Hg10 mi
9:51 PM75 °FPassing clouds.6 mph60%29.82 "Hg10 mi
8:51 PM76 °FPassing clouds.5 mph58%29.81 "Hg10 mi
7:51 PM78 °FScattered clouds.5 mph56%29.78 "Hg10 mi
6:51 PM82 °FScattered clouds.8 mph49%29.78 "Hg10 mi
5:51 PM85 °FSunny.8 mph45%29.79 "Hg10 mi
4:51 PM89 °FPassing clouds.12 mph39%29.78 "Hg10 mi
3:51 PM89 °FSunny.13 mph41%29.80 "Hg10 mi
2:51 PM91 °FSunny.10 mph39%29.82 "Hg10 mi
1:51 PM91 °FSunny.9 mph41%29.84 "Hg10 mi
12:51 PM91 °FSunny.12 mph38%29.85 "Hg10 mi
11:51 AM89 °FSunny.12 mph42%29.87 "Hg10 mi
10:51 AM87 °FSunny.8 mph43%29.88 "Hg10 mi
9:51 AM84 °FSunny.6 mph48%29.88 "Hg10 mi
8:51 AM79 °FSunny.No wind58%29.88 "Hg10 mi
7:51 AM75 °FSunny.No wind69%29.88 "Hg10 mi
6:51 AM73 °FClear.No wind74%29.87 "Hg10 mi
Weather by CustomWeather, © 2015

See weather overviewHow to use our weather pages